Weather History for Nantucket, MA

Change the Weather History Date:

Monday, May 20, 2013

  Actual Average Record
Temperature  
Mean Temperature 58 °F -  
Max Temperature 62 °F 61 °F 71 °F (1960)
Min Temperature 55 °F 48 °F 36 °F (1950)
Degree Days  
Heating Degree Days 7    
Growing Degree Days 8 (Base 50)    
Moisture  
Dew Point 55 °F    
Average Humidity 92    
Maximum Humidity 94    
Minimum Humidity 82    
Precipitation  
Precipitation 0.27 in - - ()
Sea Level Pressure  
Sea Level Pressure 30.06 in    
Wind  
Wind Speed 12 mph (SW)    
Max Wind Speed 20 mph    
Max Gust Speed 25 mph    
Visibility 1 miles    
Events Fog , Rain    
Averages and records for this station are not official NWS values.
T = Trace of Precipitation, MM = Missing Value Source: NWS Daily Summary

Daily Weather History Graph

Daily Weather History Graph

Search for Another Location

Airport:

Trip Planner

Search our weather history database for the weather conditions in past years. The results will help you decide how hot, cold, wet, or windy it might be!

Date:

Astronomy

May. 20, 2013 Rise Set
Actual Time 5:17 AM EDT 7:57 PM EDT
Civil Twilight 4:45 AM EDT 8:29 PM EDT
Nautical Twilight 4:05 AM EDT 9:09 PM EDT
Astronomical Twilight 3:19 AM EDT 9:54 PM EDT
Moon 2:58 PM EDT 2:13 AM EDT
Length of Visible Light 15h 43m
Length of Day
14h 39m
Waxing Gibbous, 75% of the Moon is Illuminated
May 20
Waxing Gibbous
May 25
Full
May 31
Last Quarter
Jun 8
New
Jun 16
First Quarter

Hourly Weather History & Observations

Time (EDT) Temp. Dew Point Humidity Pressure Visibility Wind Dir Wind Speed Gust Speed Precip Events Conditions
12:11 AM 55.4 °F 53.6 °F 94% 30.26 in 4.0 mi SE 11.5 mph - 0.01 in Rain Light Rain
12:25 AM 55.4 °F 53.6 °F 94% 30.25 in 4.0 mi SSE 12.7 mph - 0.01 in Rain Light Rain
12:53 AM 55.0 °F 53.1 °F 93% 30.24 in 5.0 mi SSE 10.4 mph - 0.02 in Rain Light Rain
1:13 AM 55.4 °F 53.6 °F 94% 30.22 in 4.0 mi SSE 12.7 mph - 0.02 in Rain Light Rain
1:41 AM 55.4 °F 53.6 °F 94% 30.21 in 2.0 mi SSE 13.8 mph - 0.05 in Rain Light Rain
1:53 AM 55.9 °F 54.0 °F 93% 30.20 in 2.5 mi SSE 13.8 mph - 0.06 in Rain Light Rain
2:03 AM 55.4 °F 53.6 °F 94% 30.20 in 3.0 mi SSE 12.7 mph - 0.00 in Rain Light Rain
2:17 AM 55.4 °F 53.6 °F 94% 30.19 in 2.0 mi SSE 13.8 mph - 0.03 in Rain Light Rain
2:28 AM 55.4 °F 53.6 °F 94% 30.18 in 3.0 mi SSE 15.0 mph - 0.04 in Rain Light Rain
2:37 AM 55.4 °F 53.6 °F 94% 30.18 in 2.5 mi SSE 12.7 mph - 0.05 in Rain Light Rain
2:44 AM 55.4 °F 53.6 °F 94% 30.18 in 4.0 mi South 13.8 mph - 0.05 in Rain Light Rain
2:53 AM 55.9 °F 54.0 °F 93% 30.18 in 3.0 mi SSE 11.5 mph - 0.07 in Rain Rain
3:00 AM 55.4 °F 53.6 °F 94% 30.17 in 2.5 mi SSE 11.5 mph - 0.01 in Rain Light Rain
3:07 AM 55.4 °F 53.6 °F 94% 30.17 in 3.0 mi SSE 11.5 mph - 0.02 in Rain Light Rain
3:53 AM 57.0 °F 54.0 °F 89% 30.14 in 5.0 mi SSE 11.5 mph 19.6 mph 0.04 in Rain Light Rain
4:41 AM 55.4 °F 53.6 °F 94% 30.13 in 2.5 mi SSE 9.2 mph - 0.05 in Rain Light Rain
4:48 AM 57.2 °F 53.6 °F 88% 30.12 in 4.0 mi SSE 11.5 mph - 0.06 in Rain Light Rain
4:53 AM 57.0 °F 54.0 °F 89% 30.12 in 4.0 mi SSE 11.5 mph - 0.06 in Rain Light Rain
5:53 AM 57.0 °F 55.0 °F 93% 30.12 in 7.0 mi South 9.2 mph - 0.00 in   Overcast
6:18 AM 57.2 °F 55.4 °F 94% 30.11 in 2.5 mi SSW 9.2 mph - N/A   Overcast
6:53 AM 57.0 °F 54.0 °F 89% 30.11 in 2.0 mi SSW 6.9 mph - 0.01 in Rain Light Rain
7:17 AM 57.2 °F 55.4 °F 94% 30.11 in 2.0 mi SW 11.5 mph - 0.01 in Rain Light Rain
7:46 AM 57.2 °F 55.4 °F 94% 30.11 in 1.8 mi SSW 11.5 mph - 0.01 in   Overcast
7:53 AM 57.0 °F 55.0 °F 93% 30.11 in 1.8 mi SSW 11.5 mph - 0.01 in   Overcast
8:00 AM 57.2 °F 55.4 °F 94% 30.11 in 2.0 mi SW 10.4 mph - N/A   Overcast
8:09 AM 57.2 °F 55.4 °F 94% 30.11 in 1.5 mi SW 9.2 mph - N/A   Overcast
8:32 AM 57.2 °F 55.4 °F 94% 30.10 in 0.8 mi SSW 11.5 mph - N/A   Mist
8:53 AM 57.0 °F 55.0 °F 93% 30.09 in 0.5 mi SSW 11.5 mph - N/A Fog Fog
8:58 AM 57.2 °F 55.4 °F 94% 30.09 in 0.2 mi SSW 9.2 mph - N/A Fog Fog
9:23 AM 57.2 °F 55.4 °F 94% 30.09 in 0.2 mi SW 9.2 mph - N/A Fog Fog
9:53 AM 57.9 °F 55.9 °F 93% 30.09 in 0.2 mi SW 9.2 mph - N/A Fog Fog
10:51 AM 59.0 °F 57.2 °F 94% 30.07 in 0.5 mi WSW 10.4 mph - N/A Fog Fog
10:53 AM 60.1 °F 57.0 °F 90% 30.07 in 0.5 mi WSW 10.4 mph - N/A Fog Fog
11:53 AM 59.0 °F 57.0 °F 93% 30.06 in 0.2 mi SW 9.2 mph - N/A Fog Fog
12:10 PM 60.8 °F 57.2 °F 88% 30.04 in 1.0 mi WSW 15.0 mph 20.7 mph N/A   Mist
12:17 PM 60.8 °F 57.2 °F 88% 30.04 in 0.8 mi SW 13.8 mph - N/A   Mist
12:53 PM 61.0 °F 55.9 °F 83% 30.03 in 0.8 mi WSW 17.3 mph - N/A   Haze
1:53 PM 61.0 °F 57.0 °F 87% 30.01 in 0.8 mi WSW 19.6 mph 25.3 mph N/A   Overcast
2:53 PM 61.0 °F 55.9 °F 83% 30.00 in 0.5 mi WSW 18.4 mph 24.2 mph N/A   Mist
3:36 PM 59.0 °F 55.4 °F 88% 29.98 in 0.2 mi SW 16.1 mph - N/A Fog Fog
3:43 PM 59.0 °F 55.4 °F 88% 29.98 in 0.2 mi SW 17.3 mph - N/A Fog Fog
3:53 PM 59.0 °F 55.9 °F 90% 29.99 in 0.2 mi WSW 17.3 mph - N/A Fog Fog
4:06 PM 60.8 °F 55.4 °F 82% 29.99 in 1.0 mi West 13.8 mph 23.0 mph N/A   Mist
4:17 PM 60.8 °F 57.2 °F 88% 29.99 in 0.5 mi West 13.8 mph - N/A Fog Fog
4:53 PM 60.1 °F 55.9 °F 86% 29.99 in 2.0 mi WSW 15.0 mph - N/A   Overcast
5:26 PM 57.2 °F 55.4 °F 94% 29.98 in 0.5 mi WSW 15.0 mph - N/A Fog Fog
5:53 PM 57.9 °F 55.0 °F 90% 29.98 in 0.5 mi WSW 13.8 mph - N/A Fog Fog
6:50 PM 57.2 °F 55.4 °F 94% 29.97 in 0.2 mi WSW 15.0 mph - N/A Fog Fog
6:53 PM 57.0 °F 55.0 °F 93% 29.97 in 0.2 mi WSW 17.3 mph 23.0 mph N/A Fog Fog
7:01 PM 57.2 °F 55.4 °F 94% 29.97 in 0.2 mi WSW 12.7 mph 23.0 mph N/A Fog Fog
7:11 PM 57.2 °F 55.4 °F 94% 29.98 in 0.5 mi WSW 13.8 mph - N/A Fog Fog
7:26 PM 57.2 °F 53.6 °F 88% 29.98 in 0.2 mi WSW 12.7 mph - N/A Fog Fog
7:39 PM 57.2 °F 53.6 °F 88% 29.98 in 0.5 mi WSW 13.8 mph - N/A Fog Fog
7:46 PM 57.2 °F 53.6 °F 88% 29.98 in 0.2 mi WSW 15.0 mph - N/A Fog Fog
7:53 PM 57.0 °F 55.0 °F 93% 29.99 in 0.2 mi WSW 12.7 mph - N/A Fog Fog
8:01 PM 57.2 °F 55.4 °F 94% 29.98 in 0.2 mi WSW 13.8 mph - N/A Fog Fog
8:20 PM 57.2 °F 55.4 °F 94% 29.98 in 0.5 mi WSW 12.7 mph - N/A Fog Fog
8:30 PM 57.2 °F 55.4 °F 94% 29.98 in 0.2 mi WSW 16.1 mph - N/A Fog Fog
8:50 PM 57.2 °F 55.4 °F 94% 29.98 in 0.2 mi WSW 15.0 mph - N/A Fog Fog
8:53 PM 57.0 °F 55.0 °F 93% 29.99 in 0.2 mi WSW 13.8 mph - N/A Fog Fog
9:14 PM 57.2 °F 53.6 °F 88% 29.99 in 0.2 mi WSW 13.8 mph - N/A Fog Fog
9:28 PM 57.2 °F 55.4 °F 94% 29.99 in 0.2 mi WSW 15.0 mph - N/A Fog Fog
9:37 PM 57.2 °F 55.4 °F 94% 30.00 in 0.5 mi WSW 12.7 mph - N/A Fog Fog
10:21 PM 57.2 °F 55.4 °F 94% 30.00 in 0.2 mi WSW 12.7 mph - N/A Fog Fog
10:31 PM 57.2 °F 55.4 °F 94% 29.99 in 0.2 mi WSW 13.8 mph - N/A Fog Fog
10:44 PM 57.2 °F 55.4 °F 94% 29.98 in 0.2 mi WSW 12.7 mph - N/A Fog Fog
10:53 PM 57.0 °F 55.0 °F 93% 29.99 in 0.2 mi WSW 11.5 mph - N/A Fog Fog
11:09 PM 57.2 °F 55.4 °F 94% 29.99 in 0.2 mi WSW 13.8 mph - N/A Fog Fog
11:25 PM 57.2 °F 55.4 °F 94% 29.99 in 0.5 mi West 11.5 mph - N/A Fog Fog
11:33 PM 57.2 °F 55.4 °F 94% 30.00 in 0.2 mi WNW 11.5 mph - N/A Fog Fog
11:53 PM 57.0 °F 55.0 °F 93% 29.99 in 0.2 mi West 6.9 mph - N/A Fog Fog